Location: Angwan Shehu
(11.2514°N, 7.4613°E)
Time: 05:22:33
(UTC+00:00)

SR - Pass Details

Date: 19 April 2021
Orbit: 573 x 882 km, 66.7° (Epoch: 12 May)

Event Time Altitude Azimuth Distance (km) Brightness Sun altitude
Rises 17:52:52 0° 320° (NW) 3,291 ? -3.5°
Reaches altitude 10° 17:55:44 10° 308° (NW) 2,308 ? -4.1°
Maximum altitude 18:00:00 25° 254° (WSW) 1,437 ? -5.2°
Drops below altitude 10° 18:03:59 10° 198° (SSW) 2,138 ? -6.1°
Sets 18:06:33 0° 185° (S) 2,998 ? -6.7°
